017  
ASUS44 KMOB 031810  
RWRMOB  
REGIONAL WEATHER ROUNDUP  
NATIONAL WEATHER SERVICE MOBILE AL  
1200 PM CST SAT DEC 03 2022  
 
NOTE: "FAIR" INDICATES FEW OR NO CLOUDS BELOW 12,000 FEET WITH NO  
SIGNIFICANT WEATHER AND/OR S TO VISIBILITY
.  
 
* THESE STATIONS ARE PART OF THE UNIVERSITY OF SOUTH ALABAMA  
MESONET AND ARE NOT UNDER NWS OR FAA QUALITY CONTROL.
 
 
ALZ061>064-031900-  
COASTAL ALABAMA  
 
CITY SKY/WX TMP DP RH WIND PRES REMARKS
 
MOBILE REG APT PTSUNNY 77 68 73 S7 30.30F  
6HR MIN TEMP: 66; 6HR MAX TEMP: 78; 6HR PCP: TRACE;  
 
BROOKLEY FIELD PTSUNNY 74 66 76 S6 30.31F  
6HR MIN TEMP: 65; 6HR MAX TEMP: 75; 6HR PCP: TRACE;  
 
USA CAMPUS* NOT AVBL  
DOG RIVER* NOT AVBL  
 
 
CITY SKY/WX TMP DP RH WIND PRES REMARKS
 
GULF SHORES PTSUNNY 75 68 78 S8 30.30F  
 

 
 
ALZ051>060-031900-  
INTERIOR SOUTHWEST AND SOUTH CENTRAL ALABAMA  
 
CITY SKY/WX TMP DP RH WIND PRES REMARKS
 
GREENVILLE CLOUDY 73 62 68 SW12 30.28F  
6HR MIN TEMP: 57; 6HR MAX TEMP: 74;  
 
EVERGREEN PTSUNNY 77 64 64 S10 30.29F  
6HR MIN TEMP: 58; 6HR MAX TEMP: 77;  
 
ATMORE* N/A 75 66 73 SW10 30.32F  
ANDALUSIA/OPP PTSUNNY 79 63 57 SW8 30.29F  
6HR MIN TEMP: 60; 6HR MAX TEMP: 80;  
 
ANDALUSIA* N/A 75 63 64 SW5 30.30F  
FLORALA APT MOSUNNY 78 63 59 SW9 30.31F  
6HR MIN TEMP: 58; 6HR MAX TEMP: 79;  
 
FLORALA* NOT AVBL  
 

 
 
FLZ001>006-031900-  
WESTERN FLORIDA PANHANDLE  
 
CITY SKY/WX TMP DP RH WIND PRES REMARKS
 
PENSACOLA MOSUNNY 79 67 66 S10 30.30F  
6HR MIN TEMP: 66; 6HR MAX TEMP: 79; 6HR PCP: TRACE;  
 
NAS PENSACOLA PTSUNNY 77 67 71 S9 30.30F  
6HR MIN TEMP: 68; 6HR MAX TEMP: 77;  
 
MILTON PTSUNNY 79 65 62 SW12 30.29F  
6HR MIN TEMP: 61; 6HR MAX TEMP: 79; 6HR PCP: TRACE;  
 
WHTNG S FIELD MOSUNNY 78 66 66 SW8G20 30.29F  
6HR MIN TEMP: 62; 6HR MAX TEMP: 79; 6HR PCP: TRACE;  
 
 
CITY SKY/WX TMP DP RH WIND PRES REMARKS
 
JAY* NOT AVBL  
DUKE FIELD SUNNY 77 66 69 S12 30.29F  
CRESTVIEW MOSUNNY 78 67 68 S10 30.31F  
6HR MIN TEMP: 59; 6HR MAX TEMP: 79;  
 
VALPARAISO SUNNY 74 67 76 S9 30.28F  
6HR MIN TEMP: 62; 6HR MAX TEMP: 74;  
 
DESTIN CLOUDY 78 68 71 S6 30.30F  
6HR MIN TEMP: 67; 6HR MAX TEMP: 78;  
 

 
 
MSZ076-079-031900-  
INTERIOR SOUTHEAST MISSISSIPPI  
 
CITY SKY/WX TMP DP RH WIND PRES REMARKS
 
LEAKESVILLE* NOT AVBL  
AGRICOLA* N/A 77 70 78 W2 30.28  
 

 
 
MARINE OBSERVATIONS  
 
STATION/POSITION TIME TEMP WIND PRES WAVE
 
AIR SEA DIR/SP/G HT/PER  
(UTC) (F) (DEG/KT/KT) (MB) (FT/S)  
PETIT BOIS ISLND 1730 68 190/ 5/ 6 1025.8F  
E DAUPHIN ISLAND NOT AVBL  
USCG MOBILE BAY 1730 73 62 180/ 6/ 11 1026.3F  
STATE DOCKS 1730 72 62 1024.9F  
WEEKS BAY 1630 76 1028.0S  
FORT MORGAN 1730 70 1026.3F  
12 S ORANGE BCH 1750 72 71 180/ 6/ 8 1026.0F 2/ 4  
PENSACOLA BAY 1730 73 63 190/ 3/ 4 1026.7F  
64 S DAUPHIN ISL 1750 75 73 160/ 6/ 6 1026.5F 3/ 7  
 

 
 
SELECTED LOCATIONS ACROSS THE REGION  
 
CITY SKY/WX TMP DP RH WIND PRES REMARKS
 
NEW ORLEANS PTSUNNY 79 71 76 SW5 30.28F  
GULFPORT CLOUDY 77 71 82 S6 30.29F  
PASCAGOULA AP CLOUDY 76 70 82 S3 30.29F  
PASCAGOULA* NOT AVBL  
HATTIESBURG LGT RAIN 73 71 93 W3 30.30F  
LAUREL CLOUDY 72 72 100 VRB5 30.31F  
MERIDIAN CLOUDY 74 67 78 W6 30.28F  
JACKSON PTSUNNY 75 67 76 W7 30.29F  
MONTGOMERY CLOUDY 75 63 66 SW12 30.28F  
TROY MOSUNNY 79 62 56 SW9 30.30F  
ASHFORD* N/A 75 63 64 SW5 30.30F  
DOTHAN PTSUNNY 76 64 66 SW13 30.33F  
PANAMA CITY CLOUDY 76 65 68 S9 30.31F  
 

 
 
 
 
CLICK HERE TO GO TO PREVIOUS BULLETINS.

The Nexlab AL Page
The Nexlab FL Page
The Nexlab MS Page Main Text Page